Fosston, MN

2:51 AM CST on December 17, 2017 (GMT -0600)
Fosston Municipal

Weather History for KFSE - November, 2012

Change the Weather History Date:

Monday, November 19, 2012

  Actual Average Record
Temperature  
Mean Temperature 34 °F -  
Max Temperature 48 °F 31 °F 53 °F (1963)
Min Temperature 19 °F 17 °F -11 °F (1996)
Degree Days  
Heating Degree Days 32    
Moisture  
Dew Point 31 °F    
Average Humidity 81    
Maximum Humidity 100    
Minimum Humidity 62    
Precipitation  
Precipitation 0.00 in - - ()
Sea Level Pressure  
Sea Level Pressure 30.02 in    
Wind  
Wind Speed 6 mph (SSW)    
Max Wind Speed 13 mph    
Max Gust Speed 17 mph    
Visibility 8 miles    
Events Fog , Thunderstorm    
Averages and records for this station are not official NWS values.
T = Trace of Precipitation, MM = Missing Value Source: NWS Daily Summary

Daily Weather History Graph

Daily Weather History Graph

Search for Another Location

Airport or City:

Trip Planner

Search our weather history database for the weather conditions in past years. The results will help you decide how hot, cold, wet, or windy it might be!

Date:

Astronomy

Nov. 19, 2012 Rise Set
Actual Time 7:34 AM CST 4:41 PM CST
Civil Twilight 7:00 AM CST 5:15 PM CST
Nautical Twilight 6:22 AM CST 5:53 PM CST
Astronomical Twilight 5:46 AM CST 6:30 PM CST
Moon 12:28 PM CST (11/19) 11:22 PM CST (11/19)
Length of Visible Light 10h 15m
Length of Day
9h 07m
Waxing Crescent, 41% of the Moon is Illuminated
Nov 19
Waxing Crescent
Nov 20
First Quarter
Nov 28
Full
Dec 6
Last Quarter
Dec 13
New

Hourly Weather History & Observations

Time (CST) Temp. Windchill Dew Point Humidity Pressure Visibility Wind Dir Wind Speed Gust Speed Precip Events Conditions
12:15 AM 44.6 °F 39.2 °F 35.6 °F 71% 29.93 in 10.0 mi South 10.4 mph - N/A   Scattered Clouds
12:35 AM 42.8 °F 37.5 °F 35.6 °F 76% 29.93 in 10.0 mi SSE 9.2 mph - N/A   Clear
12:55 AM 42.8 °F 40.1 °F 35.6 °F 76% 29.92 in 10.0 mi SSE 4.6 mph - N/A   Clear
1:15 AM 42.8 °F 38.0 °F 35.6 °F 76% 29.92 in 10.0 mi SSE 8.1 mph - N/A   Clear
1:35 AM 42.8 °F 37.5 °F 35.6 °F 76% 29.91 in 10.0 mi South 9.2 mph - N/A   Clear
1:55 AM 44.6 °F 39.2 °F 35.6 °F 71% 29.91 in 10.0 mi South 10.4 mph - N/A   Scattered Clouds
2:15 AM 44.6 °F 39.2 °F 35.6 °F 71% 29.91 in 10.0 mi SSE 10.4 mph - N/A   Scattered Clouds
2:35 AM 44.6 °F 39.7 °F 35.6 °F 71% 29.91 in 10.0 mi SSE 9.2 mph - N/A   Scattered Clouds
2:55 AM 42.8 °F 37.5 °F 33.8 °F 70% 29.91 in 10.0 mi SSE 9.2 mph - N/A   Clear
3:15 AM 42.8 °F - 33.8 °F 70% 29.92 in 10.0 mi Calm Calm - N/A   Clear
3:35 AM 42.8 °F 37.5 °F 33.8 °F 70% 29.92 in 10.0 mi SSE 9.2 mph - N/A   Clear
3:55 AM 41.0 °F 34.7 °F 33.8 °F 76% 29.92 in 10.0 mi SSE 10.4 mph - N/A   Clear
4:15 AM 41.0 °F 35.8 °F 33.8 °F 76% 29.92 in 10.0 mi SSE 8.1 mph - N/A   Clear
4:35 AM 42.8 °F 37.0 °F 33.8 °F 70% 29.92 in 10.0 mi SSE 10.4 mph - N/A   Clear
4:55 AM 39.2 °F 33.0 °F 33.8 °F 81% 29.92 in 10.0 mi SSE 9.2 mph - N/A   Clear
5:15 AM 39.2 °F 35.0 °F 33.8 °F 81% 29.92 in 10.0 mi South 5.8 mph - N/A   Clear
5:35 AM 37.4 °F - 32.0 °F 81% 29.92 in 10.0 mi Calm Calm - N/A   Clear
5:55 AM 35.6 °F 31.7 °F 32.0 °F 87% 29.93 in 10.0 mi South 4.6 mph - N/A   Clear
6:15 AM 37.4 °F 32.8 °F 32.0 °F 81% 29.94 in 10.0 mi South 5.8 mph - N/A   Clear
6:35 AM 35.6 °F - 30.2 °F 81% 29.93 in 10.0 mi Calm Calm - N/A   Clear
6:55 AM 35.6 °F - 30.2 °F 81% 29.94 in 10.0 mi Calm Calm - N/A   Clear
7:35 AM 33.8 °F 28.6 °F 30.2 °F 87% 29.94 in 10.0 mi South 5.8 mph - N/A   Clear
7:55 AM 33.8 °F 30.8 °F 30.2 °F 87% 29.94 in 10.0 mi South 3.5 mph - N/A   Clear
8:15 AM 33.8 °F - 30.2 °F 87% 29.95 in 10.0 mi Calm Calm - N/A Thunderstorm Clear
8:35 AM 35.6 °F - 32.0 °F 87% 29.96 in 10.0 mi Calm Calm - N/A   Clear
8:55 AM 37.4 °F 31.4 °F 35.6 °F 93% 29.96 in 10.0 mi SSW 8.1 mph - N/A   Clear
9:15 AM 39.2 °F 32.5 °F 35.6 °F 87% 29.97 in 10.0 mi SSW 10.4 mph - N/A   Clear
9:35 AM 42.8 °F 36.2 °F 37.4 °F 81% 29.97 in 10.0 mi SW 12.7 mph 17.3 mph N/A   Clear
9:55 AM 41.0 °F 34.7 °F 35.6 °F 81% 29.98 in 10.0 mi SW 10.4 mph - N/A   Clear
10:15 AM 42.8 °F 36.6 °F 35.6 °F 76% 29.98 in 10.0 mi SW 11.5 mph - N/A   Clear
10:35 AM 42.8 °F 37.5 °F 35.6 °F 76% 29.99 in 10.0 mi SW 9.2 mph - N/A   Clear
10:55 AM 44.6 °F 39.7 °F 37.4 °F 76% 29.98 in 10.0 mi SSW 9.2 mph - N/A   Clear
11:15 AM 42.8 °F 38.0 °F 35.6 °F 76% 29.97 in 10.0 mi South 8.1 mph - N/A   Clear
11:35 AM 44.6 °F 40.2 °F 37.4 °F 76% 29.99 in 10.0 mi WSW 8.1 mph - N/A   Clear
11:55 AM 44.6 °F 39.7 °F 35.6 °F 71% 30.00 in 10.0 mi West 9.2 mph - N/A   Clear
12:15 PM 44.6 °F 39.7 °F 35.6 °F 71% 30.00 in 10.0 mi WNW 9.2 mph - N/A   Clear
12:35 PM 46.4 °F 42.4 °F 37.4 °F 71% 30.00 in 10.0 mi West 8.1 mph - N/A   Clear
12:55 PM 46.4 °F 41.5 °F 35.6 °F 66% 30.01 in 10.0 mi WNW 10.4 mph - N/A   Clear
1:15 PM 46.4 °F 42.4 °F 37.4 °F 71% 30.01 in 10.0 mi WNW 8.1 mph - N/A   Clear
1:35 PM 48.2 °F - 35.6 °F 62% 30.02 in 10.0 mi WNW 9.2 mph - N/A   Clear
1:55 PM 46.4 °F 45.2 °F 35.6 °F 66% 30.03 in 10.0 mi West 3.5 mph - N/A   Clear
2:15 PM 44.6 °F 40.2 °F 35.6 °F 71% 30.03 in 10.0 mi WNW 8.1 mph - N/A   Clear
2:35 PM 44.6 °F 38.8 °F 33.8 °F 66% 30.04 in 10.0 mi WNW 11.5 mph - N/A   Clear
2:55 PM 42.8 °F 37.5 °F 33.8 °F 70% 30.05 in 10.0 mi WNW 9.2 mph - N/A   Clear
3:15 PM 42.8 °F 40.1 °F 33.8 °F 70% 30.05 in 10.0 mi WNW 4.6 mph - N/A   Clear
3:35 PM 42.8 °F 39.3 °F 35.6 °F 76% 30.06 in 10.0 mi WNW 5.8 mph - N/A   Clear
3:55 PM 42.8 °F 40.1 °F 33.8 °F 70% 30.07 in 10.0 mi WNW 4.6 mph - N/A   Clear
4:15 PM 41.0 °F - 33.8 °F 76% 30.08 in 10.0 mi Calm Calm - N/A   Clear
4:35 PM 39.2 °F - 33.8 °F 81% 30.08 in 10.0 mi Calm Calm - N/A   Clear
4:55 PM 35.6 °F - 32.0 °F 87% 30.09 in 10.0 mi Calm Calm - N/A   Clear
5:15 PM 35.6 °F - 30.2 °F 81% 30.09 in 10.0 mi Calm Calm - N/A   Clear
5:35 PM 33.8 °F - 28.4 °F 81% 30.08 in 10.0 mi Calm Calm - N/A   Clear
5:55 PM 30.2 °F - 28.4 °F 93% 30.08 in 10.0 mi Calm Calm - N/A   Clear
6:15 PM 30.2 °F - 28.4 °F 93% 30.09 in 10.0 mi Calm Calm - N/A   Clear
6:35 PM 30.2 °F - 28.4 °F 93% 30.10 in 10.0 mi Calm Calm - N/A   Clear
6:55 PM 30.2 °F - 28.4 °F 93% 30.11 in 10.0 mi Calm Calm - N/A   Clear
7:15 PM 28.4 °F - 26.6 °F 93% 30.11 in 7.0 mi Calm Calm - N/A   Clear
7:35 PM 28.4 °F - 26.6 °F 93% 30.12 in 5.0 mi Calm Calm - N/A   Clear
7:55 PM 28.4 °F - 26.6 °F 93% 30.12 in 7.0 mi Calm Calm - N/A   Clear
8:15 PM 26.6 °F - 26.6 °F 100% 30.12 in 5.0 mi Calm Calm - N/A   Clear
8:35 PM 24.8 °F - 24.8 °F 100% 30.13 in 4.0 mi Calm Calm - N/A   Clear
8:55 PM 24.8 °F - 21.2 °F 86% 30.14 in 2.5 mi Calm Calm - N/A   Clear
9:15 PM 24.8 °F - 23.0 °F 93% 30.14 in 3.0 mi Calm Calm - N/A   Clear
9:36 PM 24.8 °F - 24.8 °F 100% 30.14 in 2.0 mi Calm Calm - N/A   Clear
9:55 PM 23.0 °F - 21.2 °F 93% 30.14 in 0.2 mi Calm Calm - N/A Fog Light Freezing Fog
10:15 PM 21.2 °F - 19.4 °F 93% 30.14 in 0.2 mi Calm Calm - N/A Fog Light Freezing Fog
10:36 PM 21.2 °F - 19.4 °F 93% 30.13 in 2.0 mi Calm Calm - N/A   Mostly Cloudy
10:55 PM 19.4 °F - 19.4 °F 100% 30.13 in 0.2 mi Calm Calm - N/A Fog Light Freezing Fog
11:15 PM 19.4 °F - 17.6 °F 93% 30.13 in 0.2 mi Calm Calm - N/A Fog Light Freezing Fog
11:36 PM 19.4 °F - 17.6 °F 93% 30.15 in 0.2 mi Calm Calm - N/A Fog Light Freezing Fog
11:55 PM 19.4 °F - 17.6 °F 93% 30.14 in 0.2 mi Calm Calm - N/A Fog Light Freezing Fog